Moses Owusu

Scout - AFC Leopards
10 Sep 2028
Sunday
Process

Personality

Adaptability (12) Ambition (7) Controversy (1) Loyalty (13) Pressure (10) Professionalism (16) Sportsmanship (17) Temperament (18)

Profile

Coaching Style Democratic
License National A
Determination 6
Man Management 7
Motivating 8
Discipline 3
Job Satisfaction
91%
Fatigue
0%
Role Scout
Wage 7.6K p/w
Contract 14.03.2030

Performance

Behaviour Good
Training Effectiveness
33%
Player Development
25%
Injury Prevention
40%
Tactical Implementation
25%

Recent Events

Assessed a player now
Assessed a player now
Assessed a player now
Assessed a player now
Assessed a player now
Assessed a player now
Assessed a player now
Observed a match now

Currently Monitoring

292
Player Club Status Ability Confidence Watched Last Observed Latest Vote
Geoffrey Onyango Kenya Police Active 75 / 100 40% 4 09.09.2028 -
Dehinde Ibrahim Bayelsa United Active 87 / 103 40% 1 09.09.2028 -
Abdulrahman Hamisu Niger Tornadoes Active 87 / 107 40% 1 09.09.2028 -
John Otieno Tusker Active 80 / 98 40% 1 09.09.2028 -
Hernest Malonga Kenya Police Active 90 / 91 40% 2 08.09.2028 -
Alexey Antilevskiy Slavia Mozyr Active 101 / 105 40% 2 08.09.2028 -
Simon van Duivenbooden VPS Active 115 / 81 40% 2 08.09.2028 -
Konstantin Kuchinskiy Minsk Active 93 / 106 40% 1 08.09.2028 -
Mercury Dlamini Chikhura Active 84 / 102 40% 1 08.09.2028 -
Etsgar Cruz Ruch Active 89 / 80 40% 2 07.09.2028 -
Dani Ángel Sampdoria Active 93 / 101 40% 1 07.09.2028 -
Samuel Kapen Gor Mahia Active 93 / 96 40% 3 06.09.2028 -
Olawale Emmanuel Niger Tornadoes Active 77 / 97 40% 2 06.09.2028 -
Peter Thiong'o Kakamega Homeboyz Active 100 / 87 40% 3 06.09.2028 -
Alberto Benítez Villalba Torpedo Kutaisi Active 82 / 112 40% 1 06.09.2028 -
Amine El Maswab Renaissance Active 106 / 105 40% 1 06.09.2028 -
Victor Mbaoma Gor Mahia Active 92 / 111 40% 3 05.09.2028 -
Brandon Hanlan Doncaster Rovers Active 119 / 102 40% 1 05.09.2028 -
Benson Omalla Nairobi United Active 98 / 98 40% 3 03.09.2028 -
Mathew Samuel Barau Active 84 / 83 40% 1 03.09.2028 -
Vladimer Mamuchashvili Torpedo Kutaisi Active 113 / 104 40% 1 03.09.2028 -
Daniel Suško Samtredia Active 84 / 107 40% 1 03.09.2028 -
Geraldo Bajrami Atvidaberg Active 95 / 74 40% 4 02.09.2028 -
Joseph Arumala Ikorodu City Active 89 / 92 40% 8 02.09.2028 -
Charlie Brown Accrington Stanley Active 92 / 101 40% 2 02.09.2028 -
Cristian Derbyshire Binga Active 92 / 104 40% 1 02.09.2028 -
Pemi Aderoju Notts County Active 107 / 91 40% 1 02.09.2028 -
Cailin Knock Etoiles du Mande Active 85 / 105 40% 1 01.09.2028 -
Abdulmalik Sanusi Kano Pillars Active 99 / 105 40% 1 01.09.2028 -
Zach Marsh Gillingham Active 89 / 113 40% 1 01.09.2028 -
Vladislav Fedosov Slutsk Active 76 / 67 40% 1 01.09.2028 -
Adama Traoré Gazelle Garoua Active 93 / 113 40% 3 31.08.2028 -
Giorgi Tsetskhladze Dinamo Batumi Active 103 / 79 40% 2 31.08.2028 -
Abba Khalid Remo Stars Active 74 / 97 40% 1 31.08.2028 -
Alpha Onyango Gor Mahia Active 111 / 96 40% 1 31.08.2028 -
Paolo Yrizar Chernomorets Active 111 / 118 40% 7 30.08.2028 -
Samuel Ayanrinde KCB Active 101 / 101 40% 1 30.08.2028 -
Efa Enabulele Bendel Insurance Active 95 / 92 40% 1 30.08.2028 -
Shahzodbek Ubaydullayev Gor Mahia Active 95 / 78 40% 2 29.08.2028 -
Rich Sackey Medeama Active 91 / 120 40% 2 29.08.2028 -
Guljigit Borubaev Neman Active 89 / 114 40% 1 29.08.2028 -
Omran Haydary Suduva Active 96 / 96 40% 1 29.08.2028 -
Saaka Dauda Asante Kotoko Active 94 / 106 40% 1 28.08.2028 -
Mustafa Kizza Nairobi United Active 97 / 98 40% 4 27.08.2028 -
Gideon Manaseh Ikorodu City Active 88 / 107 40% 3 27.08.2028 -
Peter Ikechukwu Kun Khalifat Active 84 / 89 40% 2 27.08.2028 -
Abubakar Adams Aduana Stars Active 103 / 87 40% 1 27.08.2028 -
Lukas Simkus Stumbras Active 97 / 77 40% 1 27.08.2028 -
Tiago Pucciarelli IF Elfsborg Active 86 / 106 40% 2 26.08.2028 -
Salisu Adamu Niger Tornadoes Active 87 / 87 40% 2 26.08.2028 -
Mahmoud Labib Heart of Lions Active 91 / 82 40% 1 26.08.2028 -
Gafar Saka Plateau United Active 100 / 83 40% 3 25.08.2028 -
Sbusiso Mtshali AS Police Active 104 / 73 40% 1 25.08.2028 -
Hunter Olson Siauliai Active 104 / 73 40% 1 25.08.2028 -
Félix Djoubairou Renaissance Active 90 / 77 40% 1 25.08.2028 -
Josephat Lopaga Kakamega Homeboyz Active 82 / 90 40% 5 24.08.2028 -
Arvydas Jankauskas Atlantas Active 81 / 104 40% 1 24.08.2028 -
Promise Itoro Bendel Insurance Active 97 / 100 40% 1 24.08.2028 -
Koro Coulibaly Stade Malien Active 121 / 100 40% 1 22.08.2028 -
Yamoussa Camara Naftan Active 109 / 105 40% 1 22.08.2028 -
Abubakar Bonni Enyimba Active 79 / 91 40% 4 21.08.2028 -
Vincenzo Plescia Latina Active 101 / 87 40% 4 20.08.2028 -
Mattia Florio Altamura Active 89 / 97 40% 3 20.08.2028 -
Andrea Mandelli AlbinoLeffe Active 115 / 113 40% 1 20.08.2028 -
Luca Munaretti Virtus Verona Active 104 / 108 40% 1 20.08.2028 -
Ifeanyi Assurance Rangers International Active 106 / 98 40% 2 18.08.2028 -
Mattia Tonetto Triestina Active 116 / 122 40% 3 18.08.2028 -
Federico Renda Giana Erminio Active 103 / 108 40% 1 18.08.2028 -
Gian Luca Mastromonaco Renate Active 103 / 94 40% 1 18.08.2028 -
Federico Ragnoli Galli Giana Erminio Active 95 / 112 40% 2 17.08.2028 -
Filippo D'Andrea Catania Active 128 / 121 40% 1 17.08.2028 -
Mohammed Katana Elect Sport Active 75 / 97 40% 1 16.08.2028 -
Andrea Silipo Ravenna Active 120 / 128 40% 1 16.08.2028 -
Onuorah Onyedika Kun Khalifat Active 71 / 92 40% 1 16.08.2028 -
Olaniyi Saheed Kwara United Active 103 / 94 40% 1 16.08.2028 -
Alessio Rizza Livorno Active 108 / 127 40% 3 15.08.2028 -
Davide Mondonico Dolomiti Bellunesi Active 116 / 105 40% 2 15.08.2028 -
Eljon Toci Ospitaletto Active 95 / 92 40% 3 15.08.2028 -
Theophilus Awua Cavese Active 101 / 121 40% 3 14.08.2028 -
Mark Gibson Fortuna Mfou Active 91 / 110 40% 1 14.08.2028 -
Marco Amadio Virtus Verona Active 113 / 109 40% 1 14.08.2028 -
Paolo Ghiglione Salernitana Active 120 / 138 40% 1 14.08.2028 -
Ismet Sinani Bra Active 93 / 112 40% 3 13.08.2028 -
Sadiq Salihu Niger Tornadoes Active 77 / 90 40% 1 13.08.2028 -
Kwame Mensah WAFA Active 90 / 68 40% 1 13.08.2028 -
Riccardo Stronati Pergolettese Active 117 / 118 40% 1 13.08.2028 -
Musa Malik Ikorodu City Active 80 / 105 40% 1 13.08.2028 -
Andrea Invernizzi Alcione Milano Active 113 / 105 40% 1 12.08.2028 -
Alessandro Zoboletti Sambenedettese Active 91 / 104 40% 1 11.08.2028 -
Jack Perkins Bromley Active 84 / 90 40% 7 09.08.2028 -
Will Wright Swindon Town Active 108 / 93 40% 2 09.08.2028 -
Thomas Alberti Cavese Active 122 / 123 40% 2 09.08.2028 -
Mattia Iori Lumezzane Active 99 / 89 40% 1 09.08.2028 -
Lorenzo Di Livio Triestina Active 126 / 120 40% 3 07.08.2028 -
Malik Djibril Picerno Active 99 / 92 40% 2 07.08.2028 -
Ashraf Dahir Nairobi United Rejected 83 / 70 58% 1 07.08.2028 Reject
Alessandro Faggioli Triestina Active 97 / 87 40% 1 07.08.2028 -
Nicolò Bruschi Ternana Active 123 / 96 40% 1 07.08.2028 -
Gianluca D'Auria Potenza Active 122 / 105 40% 4 06.08.2028 -
King Udoh Pro Patria Active 95 / 94 40% 4 06.08.2028 -
Alberto Rizzo Union Brescia Active 125 / 97 40% 3 06.08.2028 -
Facundo Lescano Salernitana Active 122 / 125 40% 1 06.08.2028 -
Kimarni Smith Newport County Active 109 / 92 40% 2 05.08.2028 -
Shane McLoughlin Cambridge United Active 84 / 105 40% 2 05.08.2028 -
Steven Nufour Inter Allies Active 109 / 75 40% 4 04.08.2028 -
Matthew Guillaumier Hamrun Spartans Active 127 / 132 40% 1 04.08.2028 -
Ilias Bronkhorst Huddersfield Town Active 113 / 113 40% 1 03.08.2028 -
Shilow Tracey Walsall Active 115 / 120 40% 5 02.08.2028 -
Ibrahim Yahaya Barau Active 89 / 80 40% 1 01.08.2028 -
Orazio Pannitteri Carrarese Active 111 / 89 40% 1 01.08.2028 -
Stevens Goovadia Polokwane City Active 96 / 107 40% 1 01.08.2028 -
Francesco Sena Audace Cerignola Active 93 / 109 40% 1 01.08.2028 -
Andrea Boffelli Lumezzane Active 98 / 125 40% 1 01.08.2028 -
Christian D'Urso Triestina Active 125 / 97 40% 2 31.07.2028 -
Pietro Martino Casertana Active 99 / 125 40% 1 31.07.2028 -
Artem Mamin Doncaster Rovers Active 114 / 87 40% 1 31.07.2028 -
Matteo Motti Ravenna Active 96 / 112 40% 5 30.07.2028 -
Lorenzo Maasland Casarano Active 118 / 125 40% 3 30.07.2028 -
Derrick Otanga Kakamega Homeboyz Active 100 / 97 40% 1 30.07.2028 -
Cathal Heffernan Harrogate Town Active 84 / 82 40% 1 30.07.2028 -
Mervan Yiğit Umraniyespor Active 99 / 119 40% 1 27.07.2028 -
Alex Stepien-Iwumene Bromley Active 93 / 72 40% 1 27.07.2028 -
Giuseppe D'Agostino Giugliano Active 99 / 118 40% 3 26.07.2028 -
Jordan Storey Crewe Alexandra Active 112 / 127 40% 3 26.07.2028 -
Idris Kanu Barnet Active 98 / 90 40% 2 26.07.2028 -
Antonino Musso Torres Active 101 / 103 40% 2 26.07.2028 -
Maleace Asamoah Wigan Athletic Active 94 / 118 40% 2 25.07.2028 -
Enrico Baldini Bra Active 104 / 105 40% 5 24.07.2028 -
Connor Mahoney Barrow AFC Active 97 / 116 40% 2 24.07.2028 -
Vitalii Dakhnovskyi Bukovyna Active 128 / 106 40% 1 24.07.2028 -
Pietro Ciotti Casarano Active 122 / 103 40% 1 24.07.2028 -
Hosea Michael Remo Stars Active 80 / 78 40% 1 24.07.2028 -
Bashar Musa US Forces Armees Active 79 / 84 40% 6 23.07.2028 -
Andrea Luongo Trento Active 91 / 131 40% 1 23.07.2028 -
Harrison Neal Fleetwood Town Active 95 / 90 40% 1 22.07.2028 -
Khama Mabunda Platinum Stars Active 95 / 95 40% 1 22.07.2028 -
Jaiminho Leiria Active 127 / 102 40% 2 20.07.2028 -
Serhii Sten Kudrivka Active 97 / 75 40% 2 20.07.2028 -
Michael Brentan Torres Active 103 / 114 40% 1 20.07.2028 -
Nupe Godstime Bayelsa United Active 102 / 101 40% 3 19.07.2028 -
Mathys Jean Marie Vis Pesaro Active 103 / 108 40% 4 19.07.2028 -
Kelsey Mooney Accrington Stanley Active 103 / 106 40% 3 18.07.2028 -
Niccolò Zanellato Casarano Active 104 / 114 40% 2 18.07.2028 -
Francesco Benassai Trento Active 113 / 121 40% 1 18.07.2028 -
Toby Mullarkey Fleetwood Town Active 106 / 113 40% 2 17.07.2028 -
Yehor Hunichev Feniks Active 109 / 90 40% 2 17.07.2028 -
Lorenzo Paolucci Audace Cerignola Active 97 / 131 40% 1 17.07.2028 -
Amos Nondi Qarabag Active 105 / 111 40% 6 16.07.2028 -
Giacomo Sali AlbinoLeffe Active 97 / 107 40% 2 15.07.2028 -
Antony Angileri Monopoli Active 108 / 88 40% 1 15.07.2028 -
Luca Coccolo Pro Vercelli Active 113 / 109 40% 1 15.07.2028 -
Rivaldo Mkhize Black Aces Active 95 / 104 40% 1 14.07.2028 -
Francesco Migliardi Dolomiti Bellunesi Active 102 / 86 40% 3 13.07.2028 -
Andrew Dallas Sambenedettese Active 88 / 82 40% 5 12.07.2028 -
Fletcher Boyd Accrington Stanley Active 100 / 110 40% 3 12.07.2028 -
Oleg Krasilnichenko Volga Active 85 / 87 40% 2 12.07.2028 -
Alexandr Saplinov Volga Active 116 / 100 40% 1 12.07.2028 -
Dantaye Gilbert Banik Ostrava Active 105 / 95 40% 3 11.07.2028 -
Vladimir Nikolov Slavia Sofia Active 119 / 106 40% 3 11.07.2028 -
Artur Murza Volga Active 107 / 83 40% 1 10.07.2028 -
Andrea Vallocchia Arzignano Active 124 / 94 40% 1 09.07.2028 -
Nikolay Ischenko Chaika Active 105 / 91 40% 1 09.07.2028 -
Tyler Walker Barrow AFC Active 104 / 92 40% 4 08.07.2028 -
Manuele Malotti Livorno Active 119 / 84 40% 2 08.07.2028 -
Samuele Spalluto Campobasso Active 112 / 77 40% 1 07.07.2028 -
Antonio Cioffi Latina Active 116 / 120 40% 1 07.07.2028 -
Jacopo Nelli Giana Erminio Active 106 / 78 40% 1 07.07.2028 -
Ben Stevenson Cheltenham Town Active 91 / 111 40% 8 06.07.2028 -
Marco Ballarini Virtus Verona Active 100 / 73 40% 1 06.07.2028 -
Bayéré Junior Loué Javor-Matis Active 93 / 99 40% 3 05.07.2028 -
Dan Crowley Milton Keynes Dons Active 122 / 99 40% 1 05.07.2028 -
John Kelly Fleetwood Town Active 80 / 80 40% 1 05.07.2028 -
Yhormar Hurtado Lechia Active 129 / 101 40% 1 05.07.2028 -
Kamarai Swyer Accrington Stanley Active 100 / 115 40% 2 04.07.2028 -
Kieran Green Crewe Alexandra Active 117 / 117 40% 1 04.07.2028 -
Vukašin Đurđević Partizan Active 116 / 120 40% 1 03.07.2028 -
Ellis Iandolo Colchester United Active 107 / 126 40% 1 02.07.2028 -
Léo Abreu Picerno Active 110 / 100 40% 2 30.06.2028 -
Ruslan Baitukov Chelyabinsk Active 92 / 113 40% 1 30.06.2028 -
Charlie Gray Fleetwood Town Active 100 / 120 40% 3 29.06.2028 -
Josh Flint Gillingham Active 120 / 118 40% 1 29.06.2028 -
Aaron McGowan Tranmere Rovers Active 86 / 83 40% 8 28.06.2028 -
Harvey Rodgers Colchester United Active 99 / 85 40% 4 27.06.2028 -
Ramazan Gadjimuradov Chelyabinsk Active 124 / 101 40% 2 27.06.2028 -
Ilja Porokhov Shinnik Active 94 / 109 40% 1 24.06.2028 -
Lorenzo Coccia Campobasso Active 118 / 113 40% 1 23.06.2028 -
Giuseppe Coppola Picerno Active 106 / 124 40% 2 22.06.2028 -
Marcus Dinanga Bromley Active 78 / 107 40% 2 21.06.2028 -
David Shavlokhov Chernomorets Active 87 / 117 40% 2 20.06.2028 -
Harry McKirdy Tranmere Rovers Active 86 / 98 40% 2 20.06.2028 -
Chimobi Igwilo Rangers International Active 102 / 119 40% 2 19.06.2028 -
William Gitama Bandari Rejected 85 / 82 58% 1 19.06.2028 Reject
Alessandro Fiordaliso Bra Active 99 / 118 40% 1 19.06.2028 -
Jacobo Escobar Vorskla Active 109 / 77 40% 1 19.06.2028 -
Ilja Rubtsov Chaika Active 99 / 72 40% 1 18.06.2028 -
Jamie Robson Oldham Athletic Active 110 / 91 40% 3 16.06.2028 -
Ged Garner Newport County Active 80 / 102 40% 4 15.06.2028 -
Diego Stramaccioni Perugia Active 112 / 118 40% 1 14.06.2028 -
Mason Bennett Harrogate Town Active 78 / 85 40% 6 13.06.2028 -
Sanasi Sy Pontedera Active 98 / 105 40% 2 13.06.2028 -
Axel Gnapi Dable Fakel Active 117 / 105 40% 1 13.06.2028 -
Kevin Ouma Kenya Police Rejected 70 / 73 58% 1 12.06.2028 Reject
Luke Brooke-Smith Chesterfield Active 106 / 121 40% 1 12.06.2028 -
Kwanele Msomi AS Police Active 77 / 81 40% 1 12.06.2028 -
Danny Cashman Crawley Town Active 80 / 104 40% 2 11.06.2028 -
Roberto Pierno Campobasso Active 101 / 126 40% 1 08.06.2028 -
Ben Whiteman Harrogate Town Active 118 / 141 40% 1 07.06.2028 -
Filippo Pirola Alcione Milano Active 110 / 131 40% 2 06.06.2028 -
Yevhen Smyrnyi Kudrivka Active 105 / 109 40% 1 06.06.2028 -
Vladislav Yakovlev Volga Active 99 / 115 40% 1 03.06.2028 -
Danil Akhatov Ufa Active 79 / 75 40% 1 03.06.2028 -
Migran Ageyan Ufa Active 107 / 88 40% 1 02.06.2028 -
Bojan Roganović Torpedo Moscow Active 127 / 104 40% 1 01.06.2028 -
Gatlin O'Donkor Gillingham Active 99 / 102 40% 1 30.05.2028 -
Daniel Udoh Salford City Active 107 / 89 40% 2 29.05.2028 -
Raffaele Sibilio Novara Active 79 / 111 40% 2 27.05.2028 -
Denis Pushkarev Chelyabinsk Active 95 / 96 40% 2 25.05.2028 -
Luca Ruffini Giana Erminio Active 100 / 105 40% 1 25.05.2028 -
Finley Potter Fleetwood Town Active 98 / 84 40% 1 24.05.2028 -
Filippo Bertolotti Alcione Milano Active 101 / 87 40% 1 24.05.2028 -
Ayanda Vete Strogino Active 75 / 80 40% 1 22.05.2028 -
Hensen Anponsa FC Diarra Active 89 / 63 40% 1 21.05.2028 -
Edwin Asamoah Berekum Chelsea Active 101 / 83 40% 1 17.05.2028 -
Daniele Ferrandino Pergolettese Active 108 / 112 40% 1 15.05.2028 -
Alessandro Spavone Guidonia Montecelio Active 91 / 82 40% 1 15.05.2028 -
Andrea Piazza Giana Erminio Active 92 / 110 40% 1 14.05.2028 -
Mauro Coppolaro Arezzo Active 122 / 119 40% 2 11.05.2028 -
Marcelo Alves SKA Khabarovsk Active 104 / 126 40% 2 10.05.2028 -
Bobby Kamwa Newport County Active 80 / 71 40% 1 09.05.2028 -
Zack Nelson Ternana Active 106 / 118 40% 1 08.05.2028 -
Harrison Addo Wa All Stars Active 98 / 84 40% 1 08.05.2028 -
Kamran Aliev SKA Khabarovsk Active 119 / 118 40% 1 07.05.2028 -
Tennai Watson Cambridge United Rejected 118 / 119 40% 2 04.05.2028 Needs More Info
Marcelo Orellana Vis Pesaro Active 100 / 130 40% 1 04.05.2028 -
Abdulrahman Garba Muranga Seal Rejected 74 / 79 42% 1 / 1m 03.05.2028 Needs More Info
Paul Osama Muranga Seal Active 65 / 65 30% 1 / 1m 03.05.2028 -
Andrej Đokanović Umraniyespor Active 88 / 108 40% 1 03.05.2028 -
Artem Bykov Sokol Active 86 / 97 40% 1 02.05.2028 -
Andi Vidal Irkutsk Active 70 / 98 40% 3 01.05.2028 -
Rahul Sharma Pontedera Active 100 / 90 40% 1 01.05.2028 -
Igor Konovalov Chernomorets Active 87 / 111 40% 3 30.04.2028 -
Peter Amidu Acquah Asante Kotoko Active 97 / 115 40% 1 30.04.2028 -
Josh Andrews Cheltenham Town Active 109 / 86 40% 1 28.04.2028 -
Leonardo Bellini Pianese Active 93 / 106 40% 1 26.04.2028 -
Said Aliev Rotor Active 106 / 114 40% 2 25.04.2028 -
Pasquale Marranzino Sambenedettese Active 85 / 92 40% 1 24.04.2028 -
Jérémie Broh Giugliano Active 107 / 112 40% 1 24.04.2028 -
Reeve Frosler Bidvest Wits Active 108 / 129 40% 2 23.04.2028 -
Daniel Chesters Salford City Active 92 / 71 40% 1 23.04.2028 -
Alao Dabani Nasarawa United Active 89 / 96 40% 1 21.04.2028 -
Youssef Dalouzi Renaissance Active 89 / 104 40% 2 20.04.2028 -
Tudor Mendel-Idowu Gubbio Active 103 / 89 40% 1 18.04.2028 -
Alessandro Garattoni AlbinoLeffe Active 99 / 86 40% 1 18.04.2028 -
Lewis Jamieson Newport County Active 114 / 111 40% 1 18.04.2028 -
Gabriel Monjes Hamrun Spartans Active 82 / 79 40% 4 17.04.2028 -
Alexandr Korotkov Rotor Active 89 / 95 40% 1 16.04.2028 -
Daniil Sukhoruchko Metalist Active 96 / 121 40% 2 15.04.2028 -
Edoardo Bernardi Arzignano Active 108 / 91 40% 1 15.04.2028 -
Sam Hart Port Vale Active 77 / 71 40% 1 11.04.2028 -
Konstantin Kovalev Volga Active 110 / 94 40% 1 08.04.2028 -
Antonio Salado Ospitaletto Active 101 / 119 40% 1 07.04.2028 -
Dilan Neves Benfica Active 78 / 104 40% 1 05.04.2028 -
Federico Valentini Forli Active 102 / 94 40% 2 04.04.2028 -
Ossama Ashley Salford City Active 110 / 110 40% 1 03.04.2028 -
Kevin Bonifazi Trapani Active 124 / 138 40% 1 02.04.2028 -
Daniel Valdelamar Yenisey Active 84 / 90 40% 1 30.03.2028 -
Surkhaikhan Abdullaev KAMAZ Active 84 / 116 40% 2 29.03.2028 -
Roman Vantukh Metalist Active 117 / 103 40% 2 28.03.2028 -
Louis Zecevic-John Colchester United Active 98 / 106 40% 1 27.03.2028 -
Jacobo Alcalde SKA Khabarovsk Active 81 / 110 40% 1 23.03.2028 -
Kwandile Gumemde US Bougouni Active 74 / 103 40% 1 21.03.2028 -
Nikolay Tolstopyatov Neftekhimik Active 95 / 119 40% 1 15.03.2028 -
Anton Sinyak Sokol Active 90 / 72 40% 1 15.03.2028 -
Tobias Bjørnstad Hamrun Spartans Active 106 / 119 40% 1 10.03.2028 -
Garrik Levin Chelyabinsk Active 104 / 121 40% 1 07.03.2028 -
Darko Todorović Fakel Active 134 / 140 40% 3 25.02.2028 -
Vladislav Sarveli Nizhniy Novgorod Active 96 / 121 40% 1 13.02.2028 -
Luis Chávez Smorgon Active 91 / 74 40% 1 10.02.2028 -
Talles Brener Septemvri Active 110 / 113 40% 1 04.02.2028 -
Mads Abrahamsen Zenit Penza Active 95 / 77 40% 1 01.02.2028 -
Martín Coria Sokol Active 80 / 116 40% 1 20.01.2028 -
Joshua Nyatini Kakamega Homeboyz Active 80 / 89 40% 2 19.01.2028 -
Lewis Bandi Gor Mahia Active 97 / 94 40% 1 17.01.2028 -
Jackson Dwang Posta Rangers Active 84 / 73 40% 1 03.01.2028 -
Tosin Olawale El-Kanemi Warriors Active 87 / 87 40% 2 26.12.2027 -
Maxim Yablonskiy Molodechno Active 80 / 71 40% 1 19.12.2027 -
Boniface Muchiri Ulinzi Stars Active 89 / 76 40% 1 08.12.2027 -
Onyeuche Ujunwa Ikorodu City Active 93 / 79 40% 1 05.12.2027 -
Shariff Musa Gor Mahia Active 104 / 84 40% 1 02.12.2027 -
Sylvester Owino Gor Mahia Active 84 / 104 40% 1 26.11.2027 -
Enock Morrison Gor Mahia Active 103 / 99 40% 1 25.11.2027 -
Tyrese Shade Burton Albion Active 115 / 76 40% 1 01.08.2026 -